Weather History for Staples, MN

Change the Weather History Date:

Tuesday, October 29, 2013

  Actual Average Record
Temperature  
Mean Temperature 26 °F -  
Max Temperature 32 °F 45 °F 64 °F (2007)
Min Temperature 21 °F 30 °F 19 °F (2011)
Degree Days  
Heating Degree Days 38    
Moisture  
Dew Point 27 °F    
Average Humidity 92    
Maximum Humidity 100    
Minimum Humidity 74    
Precipitation  
Precipitation 0.02 in - - ()
Sea Level Pressure  
Sea Level Pressure 30.26 in    
Wind  
Wind Speed 1 mph (ENE)    
Max Wind Speed 6 mph    
Max Gust Speed -    
Visibility 8 miles    
Events Rain    
Averages and records for this station are not official NWS values.
T = Trace of Precipitation, MM = Missing Value Source: NWS Daily Summary

Daily Weather History Graph

Daily Weather History Graph

Search for Another Location

Airport:

Trip Planner

Search our weather history database for the weather conditions in past years. The results will help you decide how hot, cold, wet, or windy it might be!

Date:

Astronomy

Oct. 29, 2013 Rise Set
Actual Time 7:56 AM CDT 6:08 PM CDT
Civil Twilight 7:25 AM CDT 6:39 PM CDT
Nautical Twilight 6:49 AM CDT 7:15 PM CDT
Astronomical Twilight 6:15 AM CDT 7:49 PM CDT
Moon 2:30 AM CDT (10/29) 3:37 PM CDT (10/29)
Length of Visible Light 11h 14m
Length of Day
10h 11m
Waning Crescent, 25% of the Moon is Illuminated
Oct 29
Waning Crescent
Nov 3
New
Nov 9
First Quarter
Nov 17
Full
Nov 25
Last Quarter

Hourly Weather History & Observations

Time (CDT) Temp. Windchill Dew Point Humidity Pressure Visibility Wind Dir Wind Speed Gust Speed Precip Events Conditions
12:14 AM 24.8 °F - 17.6 °F 74% 30.43 in 10.0 mi Calm Calm - N/A   Clear
12:33 AM 24.8 °F - 17.6 °F 74% 30.43 in 10.0 mi Calm Calm - N/A   Clear
12:53 AM 24.8 °F - 19.4 °F 80% 30.43 in 10.0 mi Calm Calm - N/A   Clear
1:14 AM 23.0 °F - 17.6 °F 80% 30.43 in 10.0 mi Calm Calm - N/A   Clear
1:33 AM 23.0 °F - 19.4 °F 86% 30.42 in 10.0 mi Calm Calm - N/A   Clear
1:53 AM 23.0 °F - 19.4 °F 86% 30.41 in 10.0 mi Calm Calm - N/A   Clear
2:14 AM 24.8 °F - 19.4 °F 80% 30.41 in 10.0 mi Calm Calm - N/A   Clear
2:33 AM 23.0 °F - 19.4 °F 86% 30.41 in 10.0 mi Calm Calm - N/A   Clear
2:53 AM 21.2 °F - 19.4 °F 93% 30.42 in 10.0 mi Calm Calm - N/A   Clear
3:14 AM 23.0 °F - 19.4 °F 86% 30.42 in 10.0 mi Calm Calm - N/A   Clear
3:33 AM 23.0 °F - 19.4 °F 86% 30.41 in 10.0 mi Calm Calm - N/A   Clear
3:53 AM 23.0 °F - 21.2 °F 93% 30.41 in 10.0 mi Calm Calm - N/A   Clear
4:14 AM 24.8 °F - 21.2 °F 86% 30.40 in 10.0 mi Calm Calm - N/A   Clear
4:33 AM 24.8 °F - 21.2 °F 86% 30.39 in 10.0 mi Calm Calm - N/A   Clear
4:53 AM 24.8 °F - 21.2 °F 86% 30.37 in 10.0 mi Calm Calm - N/A   Scattered Clouds
5:14 AM 24.8 °F - 21.2 °F 86% 30.37 in 10.0 mi Calm Calm - N/A   Scattered Clouds
5:33 AM 26.6 °F - 21.2 °F 80% 30.35 in 10.0 mi Calm Calm - N/A   Overcast
5:53 AM 26.6 °F - 21.2 °F 80% 30.35 in 10.0 mi Calm Calm - N/A   Mostly Cloudy
6:13 AM 26.6 °F - 21.2 °F 80% 30.33 in 10.0 mi Calm Calm - N/A   Mostly Cloudy
6:34 AM 26.6 °F - 23.0 °F 86% 30.33 in 10.0 mi Calm Calm - N/A   Overcast
6:53 AM 26.6 °F - 23.0 °F 86% 30.32 in 10.0 mi Calm Calm - N/A   Overcast
7:13 AM 26.6 °F - 24.8 °F 93% 30.32 in 10.0 mi Calm Calm - N/A   Overcast
7:34 AM 26.6 °F - 24.8 °F 93% 30.31 in 10.0 mi Calm Calm - N/A   Overcast
7:53 AM 26.6 °F - 24.8 °F 93% 30.30 in 10.0 mi Calm Calm - N/A   Overcast
8:13 AM 28.4 °F - 24.8 °F 86% 30.30 in 10.0 mi Calm Calm - N/A   Overcast
8:34 AM 28.4 °F - 24.8 °F 86% 30.30 in 10.0 mi Calm Calm - N/A   Overcast
8:53 AM 28.4 °F - 24.8 °F 86% 30.31 in 10.0 mi Calm Calm - N/A   Overcast
9:13 AM 28.4 °F - 24.8 °F 86% 30.31 in 10.0 mi Calm Calm - N/A   Overcast
9:34 AM 28.4 °F - 24.8 °F 86% 30.31 in 10.0 mi Calm Calm - N/A   Overcast
9:53 AM 28.4 °F - 24.8 °F 86% 30.31 in 10.0 mi Calm Calm - N/A Rain Light Freezing Rain
10:13 AM 28.4 °F - 24.8 °F 86% 30.31 in 10.0 mi Calm Calm - N/A Rain Light Freezing Rain
10:34 AM 28.4 °F - 26.6 °F 93% 30.32 in 7.0 mi Calm Calm - N/A Rain Light Freezing Rain
10:53 AM 28.4 °F 24.6 °F 26.6 °F 93% 30.32 in 4.0 mi ESE 3.5 mph - N/A Rain Light Freezing Rain
11:13 AM 28.4 °F - 26.6 °F 93% 30.32 in 5.0 mi Calm Calm - N/A Rain Light Freezing Rain
11:34 AM 28.4 °F - 26.6 °F 93% 30.31 in 4.0 mi Calm Calm - N/A Rain Light Freezing Rain
11:53 AM 28.4 °F 24.6 °F 28.4 °F 100% 30.31 in 4.0 mi ENE 3.5 mph - N/A Rain Light Freezing Rain
12:14 PM 30.2 °F - 28.4 °F 93% 30.30 in 3.0 mi Calm Calm - N/A Rain Light Freezing Rain
12:33 PM 30.2 °F - 28.4 °F 93% 30.29 in 7.0 mi Calm Calm - N/A Rain Light Freezing Rain
12:53 PM 30.2 °F 26.7 °F 28.4 °F 93% 30.28 in 5.0 mi NE 3.5 mph - N/A Rain Light Freezing Rain
1:12 PM 30.2 °F 26.7 °F 28.4 °F 93% 30.26 in 10.0 mi NE 3.5 mph - N/A Rain Light Freezing Rain
1:21 PM 30.2 °F 26.7 °F 28.4 °F 93% 30.26 in 7.0 mi ENE 3.5 mph - N/A   Overcast
1:41 PM 30.2 °F - 30.2 °F 100% 30.25 in 7.0 mi ENE 2.3 mph - N/A   Overcast
2:07 PM 30.2 °F - 30.2 °F 100% 30.23 in 5.0 mi ENE 2.3 mph - N/A   Overcast
2:21 PM 30.2 °F - 30.2 °F 100% 30.22 in 5.0 mi ENE 2.3 mph - N/A   Overcast
2:48 PM 30.2 °F - 30.2 °F 100% 30.21 in 5.0 mi Calm Calm - 0.01 in Rain Light Freezing Rain
2:53 PM 30.2 °F - 30.2 °F 100% 30.20 in 5.0 mi Calm Calm - 0.01 in Rain Light Freezing Rain
3:14 PM 32.0 °F 28.7 °F 30.2 °F 93% 30.19 in 7.0 mi ENE 3.5 mph - N/A Rain Rain
3:33 PM 32.0 °F 28.7 °F 30.2 °F 93% 30.18 in 10.0 mi ENE 3.5 mph - N/A Rain Light Rain
3:53 PM 32.0 °F 27.5 °F 30.2 °F 93% 30.17 in 10.0 mi ENE 4.6 mph - N/A Rain Light Rain
4:14 PM 32.0 °F 26.4 °F 30.2 °F 93% 30.17 in 10.0 mi NE 5.8 mph - N/A Rain Light Rain
4:33 PM 32.0 °F 28.7 °F 30.2 °F 93% 30.17 in 10.0 mi ENE 3.5 mph - N/A   Light Drizzle
4:53 PM 32.0 °F 28.7 °F 30.2 °F 93% 30.16 in 7.0 mi East 3.5 mph - N/A Rain Light Rain
5:14 PM 32.0 °F 27.5 °F 30.2 °F 93% 30.15 in 4.0 mi ENE 4.6 mph - 0.01 in   Drizzle
5:33 PM 32.0 °F - 30.2 °F 93% 30.15 in 7.0 mi Calm Calm - 0.01 in   Light Drizzle
5:53 PM 32.0 °F - 30.2 °F 93% 30.15 in 10.0 mi Calm Calm - 0.01 in   Overcast
6:13 PM 32.0 °F 27.5 °F 30.2 °F 93% 30.14 in 7.0 mi ENE 4.6 mph - N/A   Light Drizzle
6:33 PM 32.0 °F 28.7 °F 30.2 °F 93% 30.13 in 7.0 mi ENE 3.5 mph - N/A   Light Drizzle
6:54 PM 32.0 °F - 30.2 °F 93% 30.13 in 10.0 mi Calm Calm - N/A   Overcast
7:13 PM 32.0 °F - 32.0 °F 100% 30.14 in 7.0 mi Calm Calm - N/A   Overcast
7:33 PM 32.0 °F - 32.0 °F 100% 30.14 in 10.0 mi Calm Calm - N/A   Overcast
7:53 PM 32.0 °F - 32.0 °F 100% 30.14 in 10.0 mi Calm Calm - N/A   Overcast
8:13 PM 32.0 °F - 32.0 °F 100% 30.14 in 4.0 mi Calm Calm - N/A   Overcast
8:33 PM 32.0 °F - 32.0 °F 100% 30.14 in 3.0 mi Calm Calm - N/A   Overcast
8:54 PM 32.0 °F - 32.0 °F 100% 30.13 in 3.0 mi Calm Calm - N/A   Overcast
9:13 PM 32.0 °F - 32.0 °F 100% 30.12 in 4.0 mi Calm Calm - N/A   Overcast
9:33 PM 32.0 °F 28.7 °F 32.0 °F 100% 30.12 in 7.0 mi East 3.5 mph - N/A   Overcast
9:54 PM 32.0 °F 28.7 °F 32.0 °F 100% 30.12 in 10.0 mi East 3.5 mph - N/A   Overcast
10:13 PM 32.0 °F - 32.0 °F 100% 30.12 in 10.0 mi Calm Calm - N/A   Overcast
10:33 PM 32.0 °F - 32.0 °F 100% 30.12 in 7.0 mi Calm Calm - N/A   Overcast
10:54 PM 32.0 °F - 32.0 °F 100% 30.11 in 7.0 mi Calm Calm - N/A   Overcast
11:13 PM 32.0 °F - 32.0 °F 100% 30.10 in 7.0 mi Calm Calm - N/A   Overcast
11:33 PM 32.0 °F - 32.0 °F 100% 30.10 in 7.0 mi Calm Calm - N/A   Overcast
11:53 PM 32.0 °F - 32.0 °F 100% 30.10 in 7.0 mi Calm Calm - N/A   Overcast